Content
SEND FEEDBACK

Daily
Averages
Monthly
Summary
Canada

ST. JOHN'S, NEWFOUNDLAND


Home > North America > Canada > Newfoundland
Elevation: 459 feet     Latitude: 47 37N     Longitude: 052 44W

WEATHER
 
SELECT A DAY
Number of Records: 202,906;   Date Range: 1/1/95 - 7/20/14
 
SHARE

PRINT THIS DATA

[ ← Previous Day ]
WEATHER ALMANAC - JULY 3, 2013
[ Next Day → ]
[ °C ]   °F
Weather ElementAverageHighLow
Temperature59 °F73.4 °F (2:30 pm)44 °F (3:30 am)
Dewpoint46.3 °F52 °F (3:30 pm)39 °F (3:30 am)
Humidity62.8 %81 % (1:30 am)38 % (3:30 pm)
Barometer30.08 in30.20 in (1:30 am)29.98 in (9:30 pm)
Wind Speed16 mph20.7 mph (8:30 am)
Wind Gust28.8 mph (12:30 pm)
Weather ElementAverage
Visibility15 mi
Wind DirectionWSW (246.3 °)

Weather ElementTotal
Precipitation---
Heating Degree Days6.3 (Base 65)
Growing Degree Days8.7 (Base 50)
Averaged from 27 records on July 3, 2013
WEATHER CONDITIONS BREAKOUT
WIND DIRECTION BREAKOUT
WEATHER BY HOUR - JULY 3, 2013
[ °C ]   °F
Local TimeTemperatureDewpointHumidityBarometerVisibilityWind DirectionWind SpeedGust SpeedPrecipitationEventsConditions
1:30 AM44.6 °F39.2 °F81 %30.20 in15.0 miSSW (210°)5.8 mphPartly Cloudy
2:30 AM44.6 °F39.2 °F81 %30.18 in15.0 miSW (220°)8.1 mphScattered Clouds
3:30 AM44.0 °F39.0 °F78 %30.18 in15.0 miSSW (210°)9.2 mphClear
3:30 AM44.6 °F39.2 °F81 %30.18 in15.0 miSSW (210°)10.4 mphScattered Clouds
4:30 AM46.4 °F41.0 °F81 %30.16 in15.0 miWSW (240°)12.7 mphPartly Cloudy
5:30 AM46.4 °F41.0 °F81 %30.14 in15.0 miWSW (250°)15.0 mphScattered Clouds
6:30 AM50.0 °F42.8 °F76 %30.13 in15.0 miWest (260°)18.4 mph25.3 mphScattered Clouds
7:30 AM51.8 °F42.8 °F71 %30.13 in15.0 miWest (260°)19.6 mphPartly Cloudy
8:30 AM57.2 °F46.4 °F67 %30.12 in15.0 miWest (260°)20.7 mph27.6 mphPartly Cloudy
9:30 AM60.0 °F49.0 °F56 %30.13 in15.0 miWSW (250°)18.4 mphPartly Cloudy
9:30 AM59.0 °F48.2 °F67 %30.13 in15.0 miWSW (250°)19.6 mph27.6 mphScattered Clouds
10:30 AM59.0 °F50.0 °F72 %30.11 in15.0 miWSW (250°)17.3 mph24.2 mphMostly Cloudy
11:30 AM62.6 °F50.0 °F63 %30.09 in15.0 miWSW (250°)16.1 mph24.2 mphMostly Cloudy
12:30 PM68.0 °F51.8 °F56 %30.07 in15.0 miWSW (240°)19.6 mph28.8 mphMostly Cloudy
1:30 PM69.8 °F50.0 °F49 %30.06 in15.0 miWest (260°)17.3 mph25.3 mphMostly Cloudy
2:30 PM73.4 °F50.0 °F44 %30.05 in15.0 miWest (260°)18.4 mph25.3 mphMostly Cloudy
3:30 PM72.0 °F52.0 °F38 %30.04 in15.0 miWSW (240°)16.1 mphScattered Clouds
3:30 PM71.6 °F51.8 °F50 %30.04 in15.0 miWSW (240°)15.0 mph23.0 mphMostly Cloudy
4:30 PM69.8 °F48.2 °F46 %30.04 in15.0 miWest (270°)15.0 mph25.3 mphScattered Clouds
5:30 PM69.8 °F50.0 °F49 %30.02 in15.0 miWSW (250°)16.1 mph24.2 mphPartly Cloudy
6:30 PM68.0 °F48.2 °F49 %30.01 in15.0 miWSW (250°)16.1 mphPartly Cloudy
7:30 PM66.2 °F50.0 °F56 %30.00 in15.0 miWSW (250°)12.7 mphPartly Cloudy
8:30 PM62.6 °F46.4 °F55 %29.99 in15.0 miWSW (250°)15.0 mph20.7 mphPartly Cloudy
9:30 PM60.0 °F47.0 °F52 %29.98 in15.0 miWSW (250°)19.6 mphClear
9:30 PM59.0 °F46.4 °F63 %29.98 in15.0 miWSW (250°)20.7 mphPartly Cloudy
10:30 PM57.2 °F46.4 °F67 %29.98 in15.0 miWest (260°)19.6 mphPartly Cloudy
11:30 PM55.4 °F44.6 °F67 %29.98 in15.0 miWest (260°)18.4 mphClear
Hourly data recorded from CYYT, located miles away from St. John's, Newfoundland







STORIES FROM OUR PARTNERS